Year,Month,Day,Hour,Minute,Value (Times are PST for temperature in C)
2014,11,16,08,00,0.80
2014,11,16,08,01,0.80
2014,11,16,08,02,0.90
2014,11,16,08,03,0.90
2014,11,16,08,04,0.90
2014,11,16,08,05,1.00
2014,11,16,08,06,1.00
2014,11,16,08,07,1.00
2014,11,16,08,08,1.00
2014,11,16,08,09,1.00
2014,11,16,08,10,1.00
2014,11,16,08,11,1.10
2014,11,16,08,12,1.10
2014,11,16,08,13,1.10
2014,11,16,08,14,1.10
2014,11,16,08,15,1.10
2014,11,16,08,16,1.10
2014,11,16,08,17,1.10
2014,11,16,08,18,1.10
2014,11,16,08,19,1.10
2014,11,16,08,20,1.10
2014,11,16,08,21,1.20
2014,11,16,08,22,1.20
2014,11,16,08,23,1.20
2014,11,16,08,24,1.20
2014,11,16,08,25,1.30
2014,11,16,08,26,1.30
2014,11,16,08,27,1.30
2014,11,16,08,28,1.30
2014,11,16,08,29,1.30
2014,11,16,08,30,1.30
2014,11,16,08,31,1.30
2014,11,16,08,32,1.30
2014,11,16,08,33,1.30
2014,11,16,08,34,1.30
2014,11,16,08,35,1.30
2014,11,16,08,36,1.40
2014,11,16,08,37,1.40
2014,11,16,08,38,1.50
2014,11,16,08,39,1.50
2014,11,16,08,40,1.60
2014,11,16,08,41,1.60
2014,11,16,08,42,1.70
2014,11,16,08,43,1.70
2014,11,16,08,44,1.80
2014,11,16,08,45,1.80
2014,11,16,08,46,1.90
2014,11,16,08,47,2.00
2014,11,16,08,48,2.10
2014,11,16,08,49,2.20
2014,11,16,08,50,2.20
2014,11,16,08,51,2.30
2014,11,16,08,52,2.30
2014,11,16,08,53,2.40
2014,11,16,08,54,2.50
2014,11,16,08,55,2.50
2014,11,16,08,56,2.60
2014,11,16,08,57,2.70
2014,11,16,08,58,2.70
2014,11,16,08,59,2.80
2014,11,16,09,00,2.80
2014,11,16,09,01,2.90
2014,11,16,09,02,2.90
2014,11,16,09,03,3.00
2014,11,16,09,04,3.10
2014,11,16,09,05,3.10
2014,11,16,09,06,3.10
2014,11,16,09,07,3.20
2014,11,16,09,08,3.20
2014,11,16,09,09,3.20
2014,11,16,09,10,3.20
2014,11,16,09,11,3.20
2014,11,16,09,12,3.20
2014,11,16,09,13,3.20
2014,11,16,09,14,3.30
2014,11,16,09,15,3.30
2014,11,16,09,16,3.30
2014,11,16,09,17,3.30
2014,11,16,09,18,3.30
2014,11,16,09,19,3.40
2014,11,16,09,20,3.40
2014,11,16,09,21,3.50
2014,11,16,09,22,3.50
2014,11,16,09,23,3.60
2014,11,16,09,24,3.60
2014,11,16,09,25,3.60
2014,11,16,09,26,3.60
2014,11,16,09,27,3.60
2014,11,16,09,28,3.60
2014,11,16,09,29,3.60
2014,11,16,09,30,3.70
2014,11,16,09,31,3.70
2014,11,16,09,32,3.70
2014,11,16,09,33,3.70
2014,11,16,09,34,3.80
2014,11,16,09,35,3.80
2014,11,16,09,36,3.80
2014,11,16,09,37,3.80
2014,11,16,09,38,3.80
2014,11,16,09,39,3.80
2014,11,16,09,40,3.80
2014,11,16,09,41,3.80
2014,11,16,09,42,3.80
2014,11,16,09,43,3.80
2014,11,16,09,44,3.90
2014,11,16,09,45,3.90
2014,11,16,09,46,3.90
2014,11,16,09,47,3.90
2014,11,16,09,48,4.00
2014,11,16,09,49,4.00
2014,11,16,09,50,4.00
2014,11,16,09,51,4.10
2014,11,16,09,52,4.00
2014,11,16,09,53,4.00
2014,11,16,09,54,4.00
2014,11,16,09,55,4.00
2014,11,16,09,56,4.00
2014,11,16,09,57,4.10
2014,11,16,09,58,4.10
2014,11,16,09,59,4.10
2014,11,16,10,00,4.10
2014,11,16,10,01,4.20
2014,11,16,10,02,4.20
2014,11,16,10,03,4.20
2014,11,16,10,04,4.20
2014,11,16,10,05,4.20
2014,11,16,10,06,4.30
2014,11,16,10,07,4.30
2014,11,16,10,08,4.30
2014,11,16,10,09,4.30
2014,11,16,10,10,4.30
2014,11,16,10,11,4.40
2014,11,16,10,12,4.40
2014,11,16,10,13,4.50
2014,11,16,10,14,4.50
2014,11,16,10,15,4.40
2014,11,16,10,16,4.40
2014,11,16,10,17,4.40
2014,11,16,10,18,4.50
2014,11,16,10,19,4.50
2014,11,16,10,20,4.50
2014,11,16,10,21,4.60
2014,11,16,10,22,4.60
2014,11,16,10,23,4.60
2014,11,16,10,24,4.60
2014,11,16,10,25,4.60
2014,11,16,10,26,4.60
2014,11,16,10,27,4.60
2014,11,16,10,28,4.60
2014,11,16,10,29,4.60
2014,11,16,10,30,4.60
2014,11,16,10,31,4.60
2014,11,16,10,32,4.60
2014,11,16,10,33,4.70
2014,11,16,10,34,4.70
2014,11,16,10,35,4.70
2014,11,16,10,36,4.70
2014,11,16,10,37,4.80
2014,11,16,10,38,4.80
2014,11,16,10,39,4.80
2014,11,16,10,40,4.80
2014,11,16,10,41,4.80
2014,11,16,10,42,4.90
2014,11,16,10,43,4.90
2014,11,16,10,44,4.90
2014,11,16,10,45,5.00
2014,11,16,10,46,5.00
2014,11,16,10,47,5.00
2014,11,16,10,48,5.00
2014,11,16,10,49,5.00
2014,11,16,10,50,5.00
2014,11,16,10,51,4.90
2014,11,16,10,52,4.90
2014,11,16,10,53,5.00
2014,11,16,10,54,5.00
2014,11,16,10,55,5.00
2014,11,16,10,56,5.10
2014,11,16,10,57,5.10
2014,11,16,10,58,5.10
2014,11,16,10,59,5.20
2014,11,16,11,00,5.20
2014,11,16,11,01,5.20
2014,11,16,11,02,5.20
2014,11,16,11,03,5.20
2014,11,16,11,04,5.20
2014,11,16,11,05,5.20
2014,11,16,11,06,5.20
2014,11,16,11,07,5.20
2014,11,16,11,08,5.20
2014,11,16,11,09,5.20
2014,11,16,11,10,5.20
2014,11,16,11,11,5.20
2014,11,16,11,12,5.20
2014,11,16,11,13,5.30
2014,11,16,11,14,5.20
2014,11,16,11,15,5.20
2014,11,16,11,16,5.30
2014,11,16,11,17,5.30
2014,11,16,11,18,5.30
2014,11,16,11,19,5.30
2014,11,16,11,20,5.30
2014,11,16,11,21,5.30
2014,11,16,11,22,5.40
2014,11,16,11,23,5.30
2014,11,16,11,24,5.30
2014,11,16,11,25,5.40
2014,11,16,11,26,5.40
2014,11,16,11,27,5.40
2014,11,16,11,28,5.40
2014,11,16,11,29,5.40
2014,11,16,11,30,5.40
2014,11,16,11,31,5.50
2014,11,16,11,32,5.50
2014,11,16,11,33,5.60
2014,11,16,11,34,5.60
2014,11,16,11,35,5.70
2014,11,16,11,36,5.70
2014,11,16,11,37,5.70
2014,11,16,11,38,5.70
2014,11,16,11,39,5.80
2014,11,16,11,40,5.80
2014,11,16,11,41,5.80
2014,11,16,11,42,5.80
2014,11,16,11,43,5.80
2014,11,16,11,44,5.80
2014,11,16,11,45,5.80
2014,11,16,11,46,5.70
2014,11,16,11,47,5.70
2014,11,16,11,48,5.70
2014,11,16,11,49,5.70
2014,11,16,11,50,5.70
2014,11,16,11,51,5.70
2014,11,16,11,52,5.70
2014,11,16,11,53,5.70
2014,11,16,11,54,5.80
2014,11,16,11,55,5.80
2014,11,16,11,56,5.90
2014,11,16,11,57,6.00
2014,11,16,11,58,6.00
2014,11,16,11,59,6.10
2014,11,16,12,00,6.20
2014,11,16,12,01,6.20
2014,11,16,12,02,6.20
2014,11,16,12,03,6.20
2014,11,16,12,04,6.30
2014,11,16,12,05,6.30
2014,11,16,12,06,6.30
2014,11,16,12,07,6.30
2014,11,16,12,08,6.30
2014,11,16,12,09,6.30
2014,11,16,12,10,6.30
2014,11,16,12,11,6.40
2014,11,16,12,12,6.40
2014,11,16,12,13,6.40
2014,11,16,12,14,6.40
2014,11,16,12,15,6.40
2014,11,16,12,16,6.40
2014,11,16,12,17,6.40
2014,11,16,12,18,6.30
2014,11,16,12,19,6.30
2014,11,16,12,20,6.30
2014,11,16,12,21,6.40
2014,11,16,12,22,6.40
2014,11,16,12,23,6.40
2014,11,16,12,24,6.40
2014,11,16,12,25,6.40
2014,11,16,12,26,6.40
2014,11,16,12,27,6.40
2014,11,16,12,28,6.30
2014,11,16,12,29,6.30
2014,11,16,12,30,6.30
2014,11,16,12,31,6.30
2014,11,16,12,32,6.30
2014,11,16,12,33,6.30
2014,11,16,12,34,6.30
2014,11,16,12,35,6.30
2014,11,16,12,36,6.30
2014,11,16,12,37,6.30
2014,11,16,12,38,6.30
2014,11,16,12,39,6.30
2014,11,16,12,40,6.30
2014,11,16,12,41,6.30
2014,11,16,12,42,6.30
2014,11,16,12,43,6.30
2014,11,16,12,44,6.30
2014,11,16,12,45,6.40
2014,11,16,12,46,6.40
2014,11,16,12,47,6.40
2014,11,16,12,48,6.40
2014,11,16,12,49,6.40
2014,11,16,12,50,6.40
2014,11,16,12,51,6.40
2014,11,16,12,52,6.40
2014,11,16,12,53,6.50
2014,11,16,12,54,6.50
2014,11,16,12,55,6.50
2014,11,16,12,56,6.60
2014,11,16,12,57,6.60
2014,11,16,12,58,6.60
2014,11,16,12,59,6.50
2014,11,16,13,00,6.50
2014,11,16,13,01,6.50
2014,11,16,13,02,6.50
2014,11,16,13,03,6.50
2014,11,16,13,04,6.50
2014,11,16,13,05,6.50
2014,11,16,13,06,6.60
2014,11,16,13,07,6.60
2014,11,16,13,08,6.60
2014,11,16,13,09,6.60
2014,11,16,13,10,6.70
2014,11,16,13,11,6.70
2014,11,16,13,12,6.70
2014,11,16,13,13,6.70
2014,11,16,13,14,6.70
2014,11,16,13,15,6.70
2014,11,16,13,16,6.70
2014,11,16,13,17,6.70
2014,11,16,13,18,6.70
2014,11,16,13,19,6.70
2014,11,16,13,20,6.70
2014,11,16,13,21,6.70
2014,11,16,13,22,6.70
2014,11,16,13,23,6.70
2014,11,16,13,24,6.70
2014,11,16,13,25,6.70
2014,11,16,13,26,6.70
2014,11,16,13,27,6.70
2014,11,16,13,28,6.70
2014,11,16,13,29,6.70
2014,11,16,13,30,6.70
2014,11,16,13,31,6.70
2014,11,16,13,32,6.70
2014,11,16,13,33,6.70
2014,11,16,13,34,6.70
2014,11,16,13,35,6.70
2014,11,16,13,36,6.70
2014,11,16,13,37,6.80
2014,11,16,13,38,6.80
2014,11,16,13,39,6.80
2014,11,16,13,40,6.80
2014,11,16,13,41,6.80
2014,11,16,13,42,6.80
2014,11,16,13,43,6.80
2014,11,16,13,44,6.80
2014,11,16,13,45,6.80
2014,11,16,13,46,6.80
2014,11,16,13,47,6.80
2014,11,16,13,48,6.80
2014,11,16,13,49,6.80
2014,11,16,13,50,6.80
2014,11,16,13,51,6.80
2014,11,16,13,52,6.80
2014,11,16,13,53,6.80
2014,11,16,13,54,6.80
2014,11,16,13,55,6.90
2014,11,16,13,56,6.90
2014,11,16,13,57,6.90
2014,11,16,13,58,7.00
2014,11,16,13,59,7.00
2014,11,16,14,00,7.00
2014,11,16,14,01,7.00
2014,11,16,14,02,7.00
2014,11,16,14,03,7.00
2014,11,16,14,04,7.00
2014,11,16,14,05,7.00
2014,11,16,14,06,6.90
2014,11,16,14,07,6.90
2014,11,16,14,08,6.90
2014,11,16,14,09,6.90
2014,11,16,14,10,6.90
2014,11,16,14,11,6.90
2014,11,16,14,12,6.80
2014,11,16,14,13,6.80
2014,11,16,14,14,6.80
2014,11,16,14,15,6.80
2014,11,16,14,16,6.80
2014,11,16,14,17,6.80
2014,11,16,14,18,6.80
2014,11,16,14,19,6.80
2014,11,16,14,20,6.70
2014,11,16,14,21,6.70
2014,11,16,14,22,6.70
2014,11,16,14,23,6.70
2014,11,16,14,24,6.70
2014,11,16,14,25,6.70
2014,11,16,14,26,6.70
2014,11,16,14,27,6.80
2014,11,16,14,28,6.80
2014,11,16,14,29,6.80
2014,11,16,14,30,6.80
2014,11,16,14,31,6.80
2014,11,16,14,32,6.80
2014,11,16,14,33,6.90
2014,11,16,14,34,6.90
2014,11,16,14,35,6.90
2014,11,16,14,36,6.90
2014,11,16,14,37,6.90
2014,11,16,14,38,6.90
2014,11,16,14,39,6.90
2014,11,16,14,40,7.00
2014,11,16,14,41,7.00
2014,11,16,14,42,7.00
2014,11,16,14,43,7.00
2014,11,16,14,44,7.00
2014,11,16,14,45,7.00
2014,11,16,14,46,7.10
2014,11,16,14,47,7.10
2014,11,16,14,48,7.10
2014,11,16,14,49,7.10
2014,11,16,14,50,7.10
2014,11,16,14,51,7.10
2014,11,16,14,52,7.10
2014,11,16,14,53,7.00
2014,11,16,14,54,7.00
2014,11,16,14,55,7.00
2014,11,16,14,56,7.00
2014,11,16,14,57,6.90
2014,11,16,14,58,6.90
2014,11,16,14,59,6.90
2014,11,16,15,00,6.90
2014,11,16,15,01,6.90
2014,11,16,15,02,6.90
2014,11,16,15,03,6.90
2014,11,16,15,04,6.90
2014,11,16,15,05,6.90
2014,11,16,15,06,6.90
2014,11,16,15,07,6.90
2014,11,16,15,08,6.90
2014,11,16,15,09,6.90
2014,11,16,15,10,6.90
2014,11,16,15,11,6.90
2014,11,16,15,12,6.80
2014,11,16,15,13,6.80
2014,11,16,15,14,6.80
2014,11,16,15,15,6.80
2014,11,16,15,16,6.80
2014,11,16,15,17,6.80
2014,11,16,15,18,6.80
2014,11,16,15,19,6.80
2014,11,16,15,20,6.80
2014,11,16,15,21,6.80
2014,11,16,15,22,6.80
2014,11,16,15,23,6.80
2014,11,16,15,24,6.80
2014,11,16,15,25,6.80
2014,11,16,15,26,6.80
2014,11,16,15,27,6.80
2014,11,16,15,28,6.80
2014,11,16,15,29,6.80
2014,11,16,15,30,6.80
2014,11,16,15,31,6.70
2014,11,16,15,32,6.70
2014,11,16,15,33,6.70
2014,11,16,15,34,6.70
2014,11,16,15,35,6.70
2014,11,16,15,36,6.60
2014,11,16,15,37,6.60
2014,11,16,15,38,6.60
2014,11,16,15,39,6.60
2014,11,16,15,40,6.50
2014,11,16,15,41,6.50
2014,11,16,15,42,6.50
2014,11,16,15,43,6.40
2014,11,16,15,44,6.40
2014,11,16,15,45,6.40
2014,11,16,15,46,6.30
2014,11,16,15,47,6.30
2014,11,16,15,48,6.30
2014,11,16,15,49,6.30
2014,11,16,15,50,6.30
2014,11,16,15,51,6.20
2014,11,16,15,52,6.20
2014,11,16,15,53,6.20
2014,11,16,15,54,6.20
2014,11,16,15,55,6.20
2014,11,16,15,56,6.20
2014,11,16,15,57,6.10
2014,11,16,15,58,6.10
2014,11,16,15,59,6.10
2014,11,16,16,00,6.10
2014,11,16,16,01,6.10
2014,11,16,16,02,6.00
2014,11,16,16,03,6.00
2014,11,16,16,04,6.00
2014,11,16,16,05,5.90
2014,11,16,16,06,5.90
2014,11,16,16,07,5.90
2014,11,16,16,08,5.90
2014,11,16,16,09,5.90
2014,11,16,16,10,5.80
2014,11,16,16,11,5.80
2014,11,16,16,12,5.80
2014,11,16,16,13,5.70
2014,11,16,16,14,5.70
2014,11,16,16,15,5.70
2014,11,16,16,16,5.70
2014,11,16,16,17,5.70
2014,11,16,16,18,5.70
2014,11,16,16,19,5.70
2014,11,16,16,20,5.70
2014,11,16,16,21,5.70
2014,11,16,16,22,5.70
2014,11,16,16,23,5.70
2014,11,16,16,24,5.70
2014,11,16,16,25,5.70
